www.pogodaiklimat.ru

Погода и климат >> Архив погоды >> Россия >> Ханты-Мансийский АО >> Ваховск


ПОГОДА в Ваховске

  • Прогноз погоды в Ваховске
  • Монитор погоды в Ваховске
  • Климат города

АРХИВ ПОГОДЫ в Ваховске

Время (UTC), дата Ветер
(напр.,м/с)
 
Видим.   Явления Облачность Т
(С)
Тd
(С)
f
(%)
Тe
(С)
Тes
(С)
Комфортность P
(гПа)
Po
(гПа)
Тmin
(С)
Tmax
(С)
R
(мм)
R24
(мм)
S
(см)
00 11.11 ЮЗ 2 10 км ясно -16.0 -18.1 84 -21 -21 1022.0 1014.6
03 11.11 ЮЗ 1 10 км 3/0
[Ci fib]
-17.0 -19.2 83 -20 -20 1023.5 1016.0 -17.0 0.3 18
06 11.11 З 2 н/о н/о -13.2 -15.3 84 -18 -18 1024.8 1017.4 -17.0
09 11.11 З 1 4000 м слабый снег 9/9 600 м
[Sc]
-12.8 -15.0 84 -15 -15 1026.6 1019.2
12 11.11 З 1 н/о н/о -13.4 -15.5 84 -16 -16 1028.1 1020.7
18 11.11 Ю 2 10 км ясно -18.6 -20.8 83 -24 -24 1029.6 1022.0
21 11.11 Ю 1 10 км 4/0
[Ci fib]
-19.4 -21.6 83 -22 -22 1029.0 1021.4
00 12.11 ЮВ 1 10 км ясно -18.1 -20.3 83 -21 -21 1028.1 1020.6
03 12.11 ЮВ 1 4000 м слабый снег 10/0
[As op]
-16.1 -18.3 83 -19 -19 1026.5 1019.0 -19.7 0.0 18
06 12.11 ЮВ 2 н/о н/о -14.0 -16.2 83 -19 -19 1025.8 1018.4
09 12.11 В 1 4000 м слабый снег 10/0
[As op]
-13.2 -15.5 83 -16 -16 1025.3 1017.9
12 12.11 СВ 1 н/о н/о -16.8 -18.7 85 -20 -20 1025.8 1018.3
18 12.11 штиль 0 10 км 10/10 600 м
[Sc]
-13.5 -15.4 86 -14 -14 1025.7 1018.3
21 12.11 СЗ 2 10 км 10/10 600 м
[Sc]
-13.5 -15.4 86 -18 -18 1026.5 1019.1
00 13.11 С 2 10 км 10/10 600 м
[Sc]
-15.9 -18.0 84 -21 -21 1026.9 1019.4
03 13.11 С 1 4000 м слабый снег 10/10 600 м
[Sc]
-18.4 -20.9 81 -21 -21 1027.8 1020.2 -18.4 0.2 18
06 13.11 С 1 н/о н/о -20.0 -23.2 76 -23 -23 1028.2 1020.6 -20.0
09 13.11 С 1 10 км 10/0
[Ci fib]
-19.8 -23.1 75 -23 -23 1028.8 1021.2
12 13.11 СВ 1 н/о н/о -22.8 -25.4 79 -26 -26 1029.4 1021.7
18 13.11 штиль 0 10 км 10/0
[Ci fib]
-23.1 -25.8 78 -23 -23 1030.1 1022.4
21 13.11 СЗ 1 10 км 10/0
[Ci fib]
-23.5 -26.3 78 -27 -27 1030.4 1022.7
00 14.11 штиль 0 10 км 10/0
[Ci fib]
-25.0 -28.0 76 -25 -25 1030.8 1023.0
03 14.11 штиль 0 10 км 3/0
[Ci fib]
-25.6 -28.8 74 -26 -26 1031.4 1023.6 -25.6
06 14.11 СВ 1 н/о н/о -22.0 -24.8 78 -25 -25 1032.0 1024.3 -26.0
09 14.11 штиль 0 10 км ясно -18.6 -22.0 75 -19 -18 1032.5 1024.9
12 14.11 штиль 0 н/о н/о -22.5 -25.1 79 -23 -23 1033.7 1026.0
18 14.11 штиль 0 10 км ясно -25.5 -28.6 75 -26 -26 1035.6 1027.8
21 14.11 СВ 1 10 км ясно -26.2 -29.4 74 -30 -30 1036.2 1028.3
00 15.11 СВ 1 10 км ясно -30.0 -33.6 71 -34 -34 опасность
обморожения
1037.1 1029.1
03 15.11 СВ 1 10 км ясно -31.0 -34.7 70 -35 -35 опасность
обморожения
1037.4 1029.4 -31.1 18
06 15.11 штиль 0 н/о н/о -21.1 -24.2 76 -21 -21 1037.0 1029.3
09 15.11 ЮВ 1 10 км ясно -18.2 -21.5 75 -21 -21 1036.4 1028.8
12 15.11 ЮВ 2 н/о н/о -21.4 -24.1 79 -27 -27 1035.6 1027.9
18 15.11 ЮВ 2 10 км 6/0
[Ci fib]
-22.0 -25.0 77 -28 -28 1033.1 1025.3
21 15.11 ЮВ 2 10 км 10/0
[Ci fib]
-19.7 -22.6 78 -25 -25 1030.4 1022.8
00 16.11 ЮВ 2 10 км 10/0
[As op]
-17.0 -19.9 78 -22 -22 1027.6 1020.0
03 16.11 ЮВ 4 10 км 10/0
[As op]
-15.5 -18.7 76 -23 -23 1024.6 1017.1 -22.4 17
06 16.11 Ю 4
{10}
н/о н/о -14.0 -16.5 81 -22 -22 1022.6 1015.3
09 16.11 Ю 3 10 км {снег} 10/0
[As op]
-11.5 -14.0 82 -17 -17 1021.2 1013.9
12 16.11 Ю 4 н/о н/о -9.7 -11.5 87 -17 -17 1021.0 1013.7
15 16.11 Ю 2 10 км {снег} 10/0
[As op]
-8.4 -10.1 88 -13 -13 1020.4 1013.2 -8.4 2
18 16.11 ЮВ 1 10 км {снег} 10/10 600 м
[Cb cap]
-7.9 -9.3 90 -10 -10 1019.3 1012.1
21 16.11 ЮВ 3 10 км 10/10 600 м
[Cb cap]
-7.2 -8.6 90 -13 -13 1017.9 1010.8
03 17.11 В 2 4000 м слабый ливневой снег 10/10 600 м
[Cb cap]
-7.1 -8.4 90 -12 -12 1013.7 1006.5 -8.4 3 20
06 17.11 В 1 н/о н/о -6.0 -7.4 90 -8 -8 1011.7 1004.6
09 17.11 СВ 1 2000 м ливневой снег 10/10 600 м
[Cb cap]
-4.8 -6.0 91 -7 -7 1010.9 1003.8
12 17.11 СЗ 1 н/о н/о -5.1 -6.0 93 -8 -8 1011.6 1004.5
15 17.11 З 1 4000 м слабый ливневой снег 9/9 600 м
[Cb cap]
-6.2 -7.4 91 -9 -9 1013.0 1005.9 -4.8 3
18 17.11 ЮЗ 1 4000 м слабый ливневой снег 10/10 600 м
[Cb cap]
-6.8 -7.9 92 -9 -9 1014.3 1007.2

 

Местоположение метеостанции Ваховск (Ханты-Мансийский АО, Россия): широта 60.95 долгота 78.77 высота над уровнем моря 56 м.

В архиве по умолчанию представлена погода в Ваховске за последнюю неделю. Архивные данные за месяц целиком и за предыдущие месяцы, начиная с января 2011 года, Вы можете получить, выбрав интересующий диапазон дат из раскрывающегося списка и нажав кнопку "Ввод!".

Внимание! Время в таблицах - всемирное. Для получения местного времени необходимо прибавить поправку, которая в Ваховске равна 5 ч.

Смотрите также архив погоды в соседних городах и на ближайших метеорологических станциях:

Погода в Александровском (Томская область, Россия) (76 км)
Погода в Ларьяке (Ханты-Мансийский АО, Россия) (81 км)
Погода в Нижневартовске (Ханты-Мансийский АО, Россия) (117 км)
Погода в Радужном (Ханты-Мансийский АО, Россия) (154 км)
Погода в Прохоркино (Томская область, Россия) (164 км)
Погода в Среднем Васюгане (Томская область, Россия) (195 км)
Погода в Корликах (Ханты-Мансийский АО, Россия) (206 км)
Погода в Напасе (Томская область, Россия) (213 км)
Погода в Каргасоке (Томская область, Россия) (239 км)
Погода в Угуте (Ханты-Мансийский АО, Россия) (263 км)

Пояснения к столбцам:

Ветер - указаны скорость ветра в м/с - средняя за 10 мин, порывы в срок и между сроками (в фигурных скобках) и направление, откуда дует ветер: С - северный, СВ - северо-восточный, В - восточный, ЮВ - юго-восточный, Ю - южный, ЮЗ - юго-западный, З - западный, СЗ - северо-западный.
Видимость - горизонтальная дальность видимости в метрах или километрах. При видимости от 1 до 10 км при отсутствии осадков обычно наблюдается дымка, при ухудшении видимости до 1 км и менее - туман. В сухую погоду видимость может ухудшаться дымом, пылью или мглою.
Явления - указаны атмосферные явления, наблюдавшиеся в срок или в последний час перед сроком; фигурными скобками обозначены явления, наблюдавшиеся между сроками (за 1-3 часа до срока); квадратными скобками обозначены град или гололедные отложения с указанием их диаметра в мм.
Облачность - указаны через наклонную черту общая и нижняя облачность в баллах и высота нижней границы облаков в метрах; квадратными скобками обозначены формы облаков: Ci - перистые, Cs - перисто-слоистые, Cc - перисто-кучевые, Ac - высококучевые, As - высокослоистые, Sc - слоисто-кучевые, Ns - слоисто-дождевые, Cu - кучевые, Cb - кучево-дождевые. Подробнее классификацию облаков см. в Атласе облаков (PDF).
T - Температура воздуха - температура, измеренная на высоте 2 м над землей.
Td - Температура точки росы - температура, при понижении до которой содержащийся в воздухе водяной пар достигнет насыщения.
f - Относительная влажность воздуха - влажноcть воздуха, измеренная на высоте 2 м над землей.
Te - Эффективная температура - температура, которую ощущает одетый по сезону человек в тени. Характеристика душности погоды. При расчете учитывается влияние влажности воздуха и скорости ветра на теплоощущения человека.
Tes - Эффективная температура на солнце - температура, которую ощущает человек, с поправкой на солнечный нагрев. Характеристика знойности погоды. Зависит от высоты солнца над горизонтом, облачности и скорости ветра. Ночью, в пасмурную погоду, а также при ветре 12 м/с и более поправка равна нулю.
P - Атмосферное давление - приведенное к уровню моря атмосферное давление.
Po - Атмосферное давление - измеренное на уровне метеостанции атмосферное давление.
Tmin - Минимальная температура - минимум температуры воздуха на высоте 2 м над землей.
Tmax - Максимальная температура - максимум температуры воздуха на высоте 2 м над землей.
R - Количество осадков - Количество выпавших осадков за период времени, мм. При наведении курсора мыши на число - период времени, за который выпало указанное количество осадков.
R24 - Количество осадков - Количество выпавших осадков за 24 часа, мм.
S - Снежный покров - Высота снежного покрова, см. При наведении курсора мыши на число - состояние снежного покрова и степень покрытия местности в баллах.